[Date Prev][Date Next][Thread Prev][Thread Next] - [Date Index][Thread Index][Author Index]
2 Line ISS Keps 10-5
- Subject: [sarex] 2 Line ISS Keps 10-5
- From: "Dave Larsen PhD" <doc@xxxxxxxxxxx>
- Date: Wed, 4 Oct 2006 19:08:38 -0700
ISS
1 25544U 98067A 06277.98593750 .00017365 00000-0 11006-3 0 7999
2 25544 051.6377 341.8330 0012852 060.1235 312.1298 15.76560478450484
----
Sent via sarex@amsat.org. Opinions expressed are those of the author.
Not an AMSAT member? Join now to support the amateur satellite program!
Subscription settings: http://amsat.org/mailman/listinfo/sarex
AMSAT Home